Météorologie Historique pour New Ulm, MN

Change the Weather History Date:

jeudi, avril 26, 2012

  Actual Average Record
Temperature  
Température moyenne 54 ° F -  
Température maximum 62 ° F 66 ° F 91 ° F (1962)
Température minimum 46 ° F 41 ° F 25 ° F (1950)
Degree Days  
Degrés-jours de chauffage 11    
Growing Degree Days 4 (Base 50)    
Moisture  
Point de rosée 30 ° F    
Average Humidity 46    
Maximum Humidity 82    
Minimum Humidity 17    
Précipitation  
Précipitation 0.00 pouce - - ()
Pression au niveau de la mer  
Pression au niveau de la mer 30.05 pouce    
Vent  
Vitesse du vent 10 mph (NE)    
Vitesse maximum du vent 16 mph    
Max Gust Speed 26 mph    
Visibilité 10 Miles terrestres    
Evénements      
Averages and records for this station are not official NWS values.
T = Trace of Precipitation, MM = Missing Value Source: NWS Daily Summary

Daily Weather History Graph

Daily Weather History Graph

Search for Another Location

Airport:

Trip Planner

Search our weather history database for the weather conditions in past years. The results will help you decide how hot, cold, wet, or windy it might be!

Date:

Astronomie

Apr. 26, 2012 Lever Coucher
Temps réel 06:15 CDT 20:16 CDT
Crépuscule civil 05:44 CDT 20:48 CDT
Crépuscule nautique 05:05 CDT 21:26 CDT
Crépuscule astronomique 04:23 CDT 22:09 CDT
Lune 09:50 CDT (4/26) 00:27 CDT (4/26)
Durée de lumière visible 15h 03m
Longueur du jour
14h 01m
Lune montante, 24% of the Moon is Illuminated
avr 26
Lune montante
avr 29
Premier quartier
mai 5
Pleine lune
mai 12
Dernier quartier
mai 20
Nouveau

Hourly Weather History & Observations

Heure (CDT) Température Refroidissement éolien Point de rosée Humidité Pression Visibilité Wind Dir Vitesse du vent Vitesse des rafales Precip Evénements Conditions météo
12:12 AM 62.6 ° F - 46.4 ° F 55% 29.78 pouce 10.0 mi Nord 12.7 mph 24.2 mph N/A   Ciel dégagé
12:33 AM 62.6 ° F - 46.4 ° F 55% 29.80 pouce 10.0 mi Nord 9.2 mph - N/A   Ciel dégagé
12:52 AM 60.8 ° F - 46.4 ° F 59% 29.81 pouce 10.0 mi Nord 9.2 mph - N/A   Ciel dégagé
1:12 AM 60.8 ° F - 46.4 ° F 59% 29.82 pouce 10.0 mi Nord 8.1 mph - N/A   Ciel dégagé
1:33 AM 59.0 ° F - 46.4 ° F 63% 29.84 pouce 10.0 mi Nord 8.1 mph - N/A   Ciel dégagé
1:52 AM 57.2 ° F - 46.4 ° F 67% 29.86 pouce 10.0 mi Nord 6.9 mph - N/A   Ciel dégagé
2:33 AM 55.4 ° F - 46.4 ° F 72% 29.87 pouce 10.0 mi NNE 13.8 mph 20.7 mph N/A   Ciel dégagé
2:52 AM 55.4 ° F - 46.4 ° F 72% 29.89 pouce 10.0 mi NNE 13.8 mph 23.0 mph N/A   Ciel dégagé
3:13 AM 53.6 ° F - 44.6 ° F 72% 29.90 pouce 10.0 mi NE 13.8 mph 18.4 mph N/A   Ciel dégagé
3:33 AM 53.6 ° F - 44.6 ° F 72% 29.91 pouce 10.0 mi NNE 15.0 mph 20.7 mph N/A   Ciel dégagé
3:52 AM 51.8 ° F - 42.8 ° F 71% 29.92 pouce 10.0 mi NNE 10.4 mph 18.4 mph N/A   Ciel dégagé
4:13 AM 51.8 ° F - 42.8 ° F 71% 29.94 pouce 10.0 mi Nord 6.9 mph - N/A   Ciel dégagé
4:33 AM 51.8 ° F - 42.8 ° F 71% 29.95 pouce 10.0 mi Nord 4.6 mph - N/A   Ciel dégagé
4:52 AM 50.0 ° F - 42.8 ° F 76% 29.96 pouce 10.0 mi Nord 3.5 mph - N/A   Ciel dégagé
5:13 AM 48.2 ° F - 42.8 ° F 82% 29.97 pouce 10.0 mi Nord 3.5 mph - N/A   Ciel dégagé
5:33 AM 48.2 ° F - 42.8 ° F 82% 29.98 pouce 10.0 mi NNO 11.5 mph - N/A   Ciel dégagé
5:52 AM 48.2 ° F - 42.8 ° F 82% 29.98 pouce 10.0 mi Nord 9.2 mph - N/A   Ciel dégagé
6:13 AM 48.2 ° F - 41.0 ° F 76% 29.99 pouce 10.0 mi Nord 8.1 mph - N/A   Ciel dégagé
6:32 AM 46.4 ° F 42.9 ° F 39.2 ° F 76% 30.00 pouce 10.0 mi Nord 6.9 mph - N/A   Ciel dégagé
6:53 AM 46.4 ° F 42.9 ° F 39.2 ° F 76% 30.01 pouce 10.0 mi Nord 6.9 mph - N/A   Ciel dégagé
7:13 AM 48.2 ° F - 39.2 ° F 71% 30.01 pouce 10.0 mi Nord 9.2 mph - N/A   Ciel dégagé
7:32 AM 48.2 ° F - 39.2 ° F 71% 30.03 pouce 10.0 mi Nord 8.1 mph - N/A   Ciel dégagé
7:53 AM 48.2 ° F - 39.2 ° F 71% 30.03 pouce 10.0 mi Nord 10.4 mph 16.1 mph N/A   Ciel dégagé
8:13 AM 50.0 ° F - 39.2 ° F 66% 30.04 pouce 10.0 mi Nord 9.2 mph 20.7 mph N/A   Ciel dégagé
8:53 AM 51.8 ° F - 39.2 ° F 62% 30.05 pouce 10.0 mi Nord 16.1 mph 24.2 mph N/A   Ciel dégagé
9:13 AM 51.8 ° F - 39.2 ° F 62% 30.06 pouce 10.0 mi NNE 11.5 mph 17.3 mph N/A   Nuages épars
9:32 AM 51.8 ° F - 39.2 ° F 62% 30.07 pouce 10.0 mi Nord 11.5 mph 18.4 mph N/A   Nuages épars
9:53 AM 51.8 ° F - 35.6 ° F 54% 30.08 pouce 10.0 mi NNE 16.1 mph 21.9 mph N/A   Ciel dégagé
10:12 AM 51.8 ° F - 33.8 ° F 50% 30.09 pouce 10.0 mi NNE 12.7 mph 23.0 mph N/A   Ciel dégagé
10:32 AM 53.6 ° F - 32.0 ° F 44% 30.11 pouce 10.0 mi NNE 12.7 mph 18.4 mph N/A   Ciel dégagé
10:53 AM 51.8 ° F - 32.0 ° F 47% 30.10 pouce 10.0 mi NNE 9.2 mph 21.9 mph N/A   Ciel dégagé
11:13 AM 53.6 ° F - 30.2 ° F 41% 30.11 pouce 10.0 mi NNE 11.5 mph 18.4 mph N/A   Ciel dégagé
11:32 AM 53.6 ° F - 32.0 ° F 44% 30.11 pouce 10.0 mi NE 9.2 mph 17.3 mph N/A   Ciel dégagé
11:53 AM 53.6 ° F - 28.4 ° F 38% 30.11 pouce 10.0 mi NNE 11.5 mph 26.5 mph N/A   Ciel dégagé
12:12 PM 53.6 ° F - 24.8 ° F 33% 30.10 pouce 10.0 mi NNE 12.7 mph 21.9 mph N/A   Ciel dégagé
12:33 PM 53.6 ° F - 21.2 ° F 28% 30.11 pouce 10.0 mi NNE 11.5 mph 18.4 mph N/A   Ciel dégagé
12:53 PM 53.6 ° F - 26.6 ° F 35% 30.12 pouce 10.0 mi NE 9.2 mph 18.4 mph N/A   Ciel dégagé
1:12 PM 55.4 ° F - 23.0 ° F 29% 30.12 pouce 10.0 mi NNE 12.7 mph 18.4 mph N/A   Ciel dégagé
1:33 PM 55.4 ° F - 24.8 ° F 31% 30.12 pouce 10.0 mi Nord 9.2 mph 23.0 mph N/A   Ciel dégagé
1:53 PM 55.4 ° F - 19.4 ° F 25% 30.13 pouce 10.0 mi ENE 12.7 mph 19.6 mph N/A   Ciel dégagé
2:12 PM 55.4 ° F - 21.2 ° F 26% 30.13 pouce 10.0 mi ENE 10.4 mph 17.3 mph N/A   Ciel dégagé
2:33 PM 55.4 ° F - 23.0 ° F 29% 30.12 pouce 10.0 mi NNE 10.4 mph 18.4 mph N/A   Ciel dégagé
2:53 PM 55.4 ° F - 19.4 ° F 25% 30.12 pouce 10.0 mi ENE 8.1 mph 18.4 mph N/A   Ciel dégagé
3:12 PM 57.2 ° F - 21.2 ° F 25% 30.11 pouce 10.0 mi NE 15.0 mph 18.4 mph N/A   Ciel dégagé
3:33 PM 55.4 ° F - 19.4 ° F 25% 30.12 pouce 10.0 mi Est 11.5 mph 19.6 mph N/A   Ciel dégagé
3:53 PM 55.4 ° F - 23.0 ° F 29% 30.12 pouce 10.0 mi Est 4.6 mph - N/A   Ciel dégagé
4:12 PM 57.2 ° F - 17.6 ° F 21% 30.12 pouce 10.0 mi ENE 10.4 mph - N/A   Ciel dégagé
4:33 PM 57.2 ° F - 19.4 ° F 23% 30.12 pouce 10.0 mi NE 6.9 mph - N/A   Ciel dégagé
5:12 PM 57.2 ° F - 19.4 ° F 23% 30.12 pouce 10.0 mi ESE 11.5 mph 17.3 mph N/A   Ciel dégagé
5:33 PM 57.2 ° F - 19.4 ° F 23% 30.11 pouce 10.0 mi ENE 12.7 mph 16.1 mph N/A   Ciel dégagé
5:53 PM 57.2 ° F - 12.2 ° F 17% 30.12 pouce 10.0 mi Est 12.7 mph - N/A   Ciel dégagé
6:12 PM 57.2 ° F - 15.8 ° F 20% 30.12 pouce 10.0 mi ENE 8.1 mph - N/A   Ciel dégagé
6:33 PM 57.2 ° F - 15.8 ° F 20% 30.12 pouce 10.0 mi ENE 6.9 mph 10.4 mph N/A   Ciel dégagé
6:52 PM 57.2 ° F - 17.6 ° F 21% 30.11 pouce 10.0 mi Est 10.4 mph - N/A   Ciel dégagé
7:12 PM 55.4 ° F - 17.6 ° F 23% 30.11 pouce 10.0 mi Est 11.5 mph - N/A   Ciel dégagé
7:33 PM 55.4 ° F - 19.4 ° F 25% 30.12 pouce 10.0 mi ENE 6.9 mph - N/A   Ciel dégagé
7:52 PM 55.4 ° F - 17.6 ° F 23% 30.11 pouce 10.0 mi Est 9.2 mph - N/A   Ciel dégagé
8:12 PM 53.6 ° F - 19.4 ° F 26% 30.12 pouce 10.0 mi Est 6.9 mph - N/A   Ciel dégagé
8:33 PM 53.6 ° F - 21.2 ° F 28% 30.12 pouce 10.0 mi Est 6.9 mph - N/A   Ciel dégagé
8:52 PM 51.8 ° F - 21.2 ° F 30% 30.12 pouce 10.0 mi Est 9.2 mph - N/A   Ciel dégagé
9:12 PM 51.8 ° F - 21.2 ° F 30% 30.13 pouce 10.0 mi Est 6.9 mph - N/A   Ciel dégagé
9:33 PM 51.8 ° F - 23.0 ° F 33% 30.13 pouce 10.0 mi Est 8.1 mph - N/A   Ciel dégagé
9:52 PM 50.0 ° F - 24.8 ° F 37% 30.13 pouce 10.0 mi Est 6.9 mph - N/A   Ciel dégagé
10:12 PM 50.0 ° F - 21.2 ° F 32% 30.13 pouce 10.0 mi Est 8.1 mph - N/A   Ciel dégagé
10:33 PM 50.0 ° F - 21.2 ° F 32% 30.13 pouce 10.0 mi Est 9.2 mph - N/A   Ciel dégagé
10:53 PM 50.0 ° F - 21.2 ° F 32% 30.13 pouce 10.0 mi Est 9.2 mph - N/A   Ciel dégagé
11:12 PM 48.2 ° F - 23.0 ° F 37% 30.14 pouce 10.0 mi Est 5.8 mph - N/A   Ciel dégagé
11:33 PM 48.2 ° F - 24.8 ° F 40% 30.12 pouce 10.0 mi Est 8.1 mph - N/A   Ciel dégagé
11:52 PM 48.2 ° F - 24.8 ° F 40% 30.12 pouce 10.0 mi Est 8.1 mph - N/A   Ciel dégagé